QPF
0.00 0.00 0.00 0.00 0.00 0.00 0.00 0.01 0.00 0.00 0.00 0.00 0.00 0.00 0.01 0.02 0.03 0.02 0.00 0.00 0.00 0.00 0.00 0.00 0.00 0.00 0.00 0.00 0.00 0.00 0.00 0.00 0.00 0.00 0.00 0.00 0.00 0.00 0.00 0.00 0.00 0.00 0.00 0.00 0.00
0.00 0.00 0.00 0.00 0.00 0.00 0.00 0.01 0.00 0.00 0.00 0.00 0.00 0.00 0.01 0.03 0.03 0.01 0.00 0.00 0.00 0.00 0.00 0.00 0.00 0.00 0.00 0.00 0.00 0.00 0.00 0.00 0.00 0.00 0.00 0.00 0.00 0.00 0.00 0.00 0.00 0.00 0.00 0.00 0.01
0.00 0.00 0.00 0.00 0.00 0.00 0.00 0.00 0.00 0.00 0.00 0.00 0.00 0.00 0.01 0.04 0.02 0.00 0.00 0.00 0.00 0.00 0.00 0.00 0.01 0.00 0.00 0.00 0.00 0.00 0.00 0.00 0.00 0.00 0.00 0.00 0.00 0.00 0.00 0.00 0.00 0.00 0.00 0.00 0.02
0.00 0.00 0.00 0.00 0.00 0.00 0.00 0.00 0.00 0.00 0.00 0.00 0.00 0.00 0.02 0.06 0.02 0.00 0.00 0.00 0.00 0.00 0.00 0.00 0.01 0.00 0.00 0.00 0.00 0.00 0.00 0.00 0.00 0.00 0.00 0.00 0.00 0.00 0.00 0.00 0.00 0.00 0.00 0.00 0.02
0.00 0.00 0.00 0.00 0.00 0.00 0.00 0.00 0.00 0.00 0.00 0.00 0.00 0.00 0.01 0.03 0.01 0.00 0.00 0.00 0.00 0.00 0.00 0.00 0.00 0.00 0.00 0.00 0.00 0.00 0.00 0.00 0.00 0.00 0.00 0.00 0.00 0.00 0.00 0.00 0.00 0.00 0.00 0.00 0.02
0.00 0.00 0.00 0.00 0.00 0.00 0.00 0.00 0.00 0.00 0.00 0.00 0.00 0.00 0.00 0.02 0.01 0.00 0.00 0.00 0.00 0.00 0.00 0.00 0.00 0.00 0.00 0.00 0.00 0.00 0.00 0.00 0.00 0.00 0.00 0.00 0.00 0.00 0.00 0.00 0.00 0.00 0.00 0.00 0.02
0.00 0.00 0.00 0.00 0.00 0.00 0.00 0.00 0.00 0.00 0.00 0.00 0.00 0.01 0.00 0.00 0.00 0.00 0.00 0.00 0.00 0.00 0.00 0.00 0.01 0.01 0.00 0.00 0.00 0.00 0.00 0.00 0.00 0.00 0.00 0.00 0.00 0.00 0.00 0.00 0.00 0.00 0.00 0.01 0.02
0.00 0.00 0.00 0.00 0.00 0.00 0.00 0.00 0.00 0.00 0.00 0.00 0.00 0.01 0.00 0.00 0.00 0.00 0.00 0.00 0.00 0.00 0.00 0.00 0.02 0.00 0.00 0.00 0.00 0.00 0.00 0.00 0.00 0.00 0.00 0.00 0.00 0.00 0.00 0.00 0.00 0.00 0.00 0.00 0.02
0.00 0.00 0.00 0.00 0.00 0.00 0.00 0.00 0.00 0.00 0.00 0.00 0.01 0.00 0.00 0.00 0.00 0.00 0.01 0.01 0.00 0.00 0.00 0.00 0.00 0.00 0.00 0.00 0.00 0.00 0.00 0.00 0.00 0.00 0.00 0.00 0.00 0.00 0.00 0.00 0.00 0.00 0.00 0.00 0.00
0.01 0.00 0.00 0.00 0.00 0.00 0.00 0.00 0.00 0.00 0.01 0.01 0.00 0.00 0.00 0.00 0.00 0.00 0.02 0.01 0.00 0.00 0.00 0.00 0.00 0.00 0.00 0.00 0.00 0.00 0.00 0.00 0.00 0.00 0.00 0.00 0.00 0.00 0.00 0.00 0.00 0.00 0.00 0.00 0.00
0.01 0.00 0.00 0.00 0.00 0.00 0.00 0.00 0.00 0.01 0.01 0.00 0.00 0.00 0.00 0.00 0.00 0.00 0.01 0.01 0.00 0.00 0.00 0.00 0.00 0.00 0.00 0.00 0.00 0.00 0.00 0.00 0.00 0.00 0.00 0.00 0.00 0.00 0.00 0.00 0.00 0.00 0.00 0.00 0.00
0.00 0.00 0.00 0.00 0.00 0.00 0.00 0.00 0.00 0.00 0.00 0.00 0.00 0.00 0.00 0.00 0.00 0.00 0.00 0.00 0.00 0.00 0.00 0.00 0.00 0.00 0.00 0.00 0.00 0.00 0.00 0.00 0.00 0.00 0.00 0.00 0.00 0.00 0.00 0.00 0.00 0.00 0.00 0.00 0.00
0.00 0.00 0.00 0.00 0.00 0.00 0.00 0.00 0.00 0.00 0.00 0.00 0.00 0.00 0.00 0.00 0.00 0.00 0.00 0.03 0.00 0.00 0.00 0.00 0.00 0.00 0.00 0.00 0.00 0.00 0.00 0.00 0.00 0.00 0.00 0.00 0.00 0.00 0.00 0.00 0.00 0.00 0.00 0.00 0.00
0.00 0.00 0.00 0.00 0.00 0.00 0.00 0.00 0.00 0.00 0.00 0.00 0.00 0.00 0.00 0.00 0.00 0.00 0.00 0.00 0.00 0.00 0.00 0.00 0.00 0.00 0.00 0.00 0.00 0.00 0.00 0.00 0.00 0.00 0.00 0.00 0.00 0.00 0.00 0.00 0.00 0.00 0.00 0.00 0.00
0.00 0.00 0.00 0.00 0.00 0.00 0.00 0.00 0.00 0.00 0.00 0.00 0.00 0.00 0.00 0.00 0.00 0.00 0.00 0.00 0.00 0.00 0.00 0.00 0.00 0.00 0.00 0.00 0.00 0.00 0.00 0.00 0.00 0.00 0.00 0.00 0.00 0.00 0.00 0.00 0.00 0.00 0.00 0.00 0.00
0.00 0.00 0.00 0.00 0.00 0.00 0.00 0.00 0.00 0.00 0.00 0.00 0.00 0.00 0.00 0.00 0.00 0.00 0.05 0.02 0.00 0.00 0.00 0.00 0.00 0.00 0.00 0.00 0.00 0.01 0.01 0.01 0.00 0.00 0.01 0.00 0.00 0.00 0.00 0.00 0.00 0.00 0.00 0.00 0.00
0.00 0.00 0.00 0.00 0.00 0.00 0.00 0.00 0.00 0.00 0.00 0.00 0.00 0.00 0.00 0.00 0.00 0.00 0.03 0.03 0.00 0.01 0.00 0.00 0.00 0.00 0.00 0.00 0.00 0.00 0.01 0.03 0.03 0.02 0.01 0.00 0.00 0.00 0.00 0.00 0.00 0.00 0.00 0.00 0.00
0.00 0.00 0.00 0.00 0.00 0.00 0.00 0.00 0.00 0.00 0.00 0.00 0.00 0.00 0.00 0.00 0.00 0.00 0.01 0.02 0.01 0.01 0.02 0.00 0.00 0.00 0.00 0.00 0.00 0.00 0.00 0.01 0.00 0.00 0.00 0.00 0.00 0.00 0.00 0.00 0.00 0.00 0.00 0.00 0.00
0.00 0.00 0.00 0.00 0.00 0.00 0.00 0.00 0.00 0.00 0.00 0.00 0.00 0.00 0.00 0.00 0.01 0.02 0.01 0.00 0.00 0.03 0.14 0.05 0.01 0.00 0.00 0.00 0.00 0.00 0.01 0.00 0.00 0.00 0.00 0.00 0.00 0.00 0.00 0.00 0.00 0.00 0.00 0.00 0.00
0.00 0.00 0.00 0.00 0.00 0.00 0.00 0.00 0.00 0.00 0.00 0.00 0.00 0.00 0.00 0.01 0.01 0.02 0.03 0.00 0.00 0.00 0.05 0.15 0.06 0.00 0.00 0.00 0.00 0.00 0.00 0.01 0.02 0.03 0.00 0.00 0.00 0.00 0.00 0.00 0.00 0.00 0.00 0.00 0.00
0.00 0.00 0.00 0.00 0.00 0.00 0.00 0.00 0.00 0.00 0.00 0.00 0.00 0.00 0.00 0.00 0.00 0.00 0.01 0.00 0.01 0.01 0.09 0.22 0.17 0.04 0.02 0.02 0.00 0.00 0.01 0.01 0.00 0.00 0.00 0.00 0.00 0.00 0.00 0.00 0.00 0.00 0.00 0.00 0.00
0.00 0.00 0.00 0.00 0.00 0.00 0.00 0.00 0.00 0.00 0.00 0.00 0.00 0.00 0.00 0.00 0.00 0.00 0.00 0.00 0.00 0.01 0.06 0.19 0.37 0.19 0.05 0.01 0.00 0.00 0.01 0.01 0.01 0.00 0.00 0.00 0.00 0.00 0.00 0.00 0.00 0.00 0.00 0.00 0.00
0.00 0.00 0.00 0.00 0.00 0.00 0.00 0.00 0.00 0.00 0.00 0.00 0.00 0.00 0.00 0.00 0.00 0.00 0.00 0.00 0.00 0.00 0.01 0.05 0.12 0.13 0.07 0.08 0.09 0.08 0.05 0.04 0.03 0.02 0.01 0.00 0.00 0.00 0.00 0.00 0.00 0.00 0.00 0.00 0.00
0.00 0.00 0.00 0.00 0.00 0.00 0.00 0.00 0.00 0.00 0.00 0.00 0.00 0.00 0.00 0.00 0.00 0.00 0.00 0.01 0.00 0.00 0.00 0.02 0.04 0.03 0.06 0.10 0.19 0.22 0.16 0.13 0.15 0.16 0.04 0.00 0.00 0.00 0.00 0.00 0.00 0.00 0.00 0.00 0.00
0.00 0.00 0.00 0.00 0.00 0.00 0.00 0.00 0.00 0.00 0.00 0.00 0.00 0.00 0.00 0.00 0.00 0.00 0.00 0.00 0.00 0.00 0.00 0.01 0.02 0.00 0.00 0.00 0.05 0.09 0.04 0.05 0.20 0.23 0.10 0.01 0.00 0.00 0.00 0.00 0.00 0.00 0.00 0.00 0.00
0.00 0.00 0.00 0.00 0.00 0.00 0.00 0.00 0.00 0.00 0.00 0.00 0.00 0.00 0.00 0.00 0.00 0.00 0.00 0.00 0.00 0.00 0.00 0.00 0.00 0.00 0.00 0.00 0.02 0.07 0.04 0.03 0.03 0.06 0.12 0.06 0.02 0.00 0.00 0.00 0.00 0.00 0.00 0.00 0.00
0.00 0.00 0.00 0.00 0.00 0.00 0.00 0.00 0.00 0.00 0.00 0.00 0.00 0.00 0.00 0.00 0.00 0.00 0.00 0.00 0.00 0.00 0.00 0.00 0.00 0.00 0.00 0.00 0.01 0.03 0.01 0.00 0.01 0.01 0.04 0.07 0.02 0.00 0.00 0.00 0.00 0.00 0.00 0.00 0.00
MSLP
1017.54 1017.31 1016.99 1016.72 1016.45 1016.14 1015.92 1015.63 1015.40 1015.21 1014.97 1014.64 1014.50 1014.36 1013.97 1013.75 1013.84 1014.04 1013.71 1013.07 1013.02 1012.89 1013.00 1013.07 1013.26 1013.18 1013.15 1013.65 1013.67 1014.27 1015.11 1015.32 1015.19 1015.30 1015.35 1015.75 1017.04 1019.35 1020.75 1021.59 1023.34 1024.39 1024.95 1026.34 1026.63
1017.70 1017.28 1017.09 1016.79 1016.55 1016.20 1015.86 1015.61 1015.33 1015.06 1014.93 1014.69 1014.43 1014.15 1014.11 1014.01 1013.82 1013.40 1012.62 1012.48 1012.36 1012.71 1013.10 1013.05 1013.33 1013.36 1013.45 1013.64 1013.99 1014.37 1015.03 1015.64 1016.39 1016.70 1016.27 1017.01 1017.66 1019.70 1021.21 1022.78 1024.47 1025.25 1025.85 1026.69 1026.97
1017.78 1017.36 1016.95 1016.79 1016.55 1016.32 1015.89 1015.61 1015.33 1015.11 1014.94 1014.69 1014.41 1014.17 1013.92 1013.77 1013.67 1012.35 1011.57 1012.16 1012.00 1012.54 1013.05 1013.23 1013.51 1013.53 1013.69 1013.96 1014.11 1014.69 1015.29 1015.96 1017.09 1017.23 1016.53 1017.85 1019.20 1020.53 1022.01 1023.82 1024.89 1025.27 1026.34 1027.10 1027.38
1017.69 1017.30 1016.95 1016.60 1016.30 1016.17 1016.06 1015.69 1015.39 1015.18 1015.02 1014.74 1014.37 1014.02 1013.63 1013.53 1013.06 1011.82 1011.63 1011.51 1011.93 1012.35 1012.91 1013.26 1013.52 1013.61 1013.89 1014.21 1014.16 1015.18 1016.01 1016.57 1017.48 1017.58 1017.67 1019.15 1020.41 1022.23 1023.45 1024.97 1025.58 1025.65 1026.53 1027.53 1027.95
1017.68 1017.26 1016.97 1016.65 1016.32 1016.07 1015.84 1015.65 1015.44 1015.14 1014.93 1014.78 1014.49 1014.08 1013.73 1013.26 1012.23 1011.40 1011.38 1011.51 1011.73 1012.49 1012.60 1013.12 1013.50 1013.66 1013.90 1013.96 1014.46 1015.36 1016.51 1017.47 1018.21 1018.29 1019.30 1020.25 1021.73 1022.85 1024.77 1025.55 1026.21 1026.48 1027.11 1027.83 1028.42
1017.59 1017.22 1016.82 1016.48 1016.23 1015.93 1015.79 1015.61 1015.30 1015.06 1014.75 1014.53 1014.27 1014.10 1013.79 1012.83 1011.25 1011.28 1011.20 1011.42 1011.73 1012.30 1012.52 1012.84 1012.72 1012.86 1013.37 1013.93 1014.76 1015.36 1016.69 1017.92 1018.52 1019.09 1019.73 1020.97 1022.70 1022.93 1025.41 1025.83 1026.41 1027.01 1027.83 1028.32 1028.77
1017.46 1017.14 1016.74 1016.41 1015.96 1015.67 1015.40 1015.27 1015.13 1014.85 1014.63 1014.29 1014.13 1014.15 1013.74 1012.42 1011.21 1011.34 1011.24 1011.45 1011.75 1011.99 1012.21 1012.30 1012.50 1012.95 1012.97 1014.34 1015.46 1016.47 1017.75 1018.43 1018.75 1019.27 1020.17 1021.36 1023.17 1023.45 1024.65 1025.83 1026.34 1027.21 1028.11 1028.70 1029.13
1017.44 1017.01 1016.55 1016.18 1015.84 1015.44 1015.12 1014.99 1014.95 1014.85 1014.53 1014.26 1014.04 1014.00 1013.16 1011.68 1011.55 1011.42 1011.15 1011.43 1011.82 1012.13 1012.25 1012.05 1012.43 1012.73 1013.21 1014.30 1015.40 1016.35 1017.34 1018.19 1018.59 1019.31 1020.47 1021.35 1021.99 1023.63 1025.04 1025.59 1026.43 1027.22 1027.95 1028.80 1029.31
1017.41 1016.88 1016.39 1015.95 1015.56 1015.18 1014.76 1014.51 1014.47 1014.34 1014.14 1013.90 1014.03 1013.92 1012.64 1011.41 1011.36 1011.08 1011.25 1011.46 1011.84 1012.19 1012.27 1012.15 1012.36 1012.75 1013.46 1014.23 1015.48 1016.25 1017.12 1017.69 1018.68 1019.17 1020.11 1020.99 1021.58 1023.30 1025.06 1025.68 1026.26 1026.95 1027.77 1028.57 1029.32
1017.47 1016.95 1016.34 1015.93 1015.49 1015.00 1014.52 1014.00 1013.84 1014.03 1014.00 1013.88 1013.82 1014.12 1012.60 1011.61 1011.10 1010.91 1011.09 1011.37 1011.95 1012.21 1012.63 1012.69 1012.64 1013.03 1013.47 1014.13 1014.82 1015.92 1016.64 1017.08 1017.90 1018.50 1019.19 1020.53 1021.58 1023.21 1024.65 1025.33 1025.97 1026.61 1027.40 1028.38 1028.78
1017.52 1016.90 1016.34 1015.93 1015.61 1015.04 1014.48 1014.01 1014.18 1014.41 1013.75 1013.19 1012.73 1012.51 1011.74 1011.65 1011.34 1011.07 1011.04 1011.72 1012.06 1012.74 1013.02 1012.73 1013.19 1013.39 1013.82 1014.05 1014.32 1014.87 1015.41 1015.93 1016.11 1016.78 1018.12 1019.45 1021.17 1022.77 1024.03 1024.67 1025.35 1025.92 1027.16 1027.79 1028.40
1017.34 1016.72 1016.23 1015.76 1015.46 1014.99 1014.80 1014.63 1014.97 1015.26 1014.06 1012.50 1012.04 1011.91 1011.65 1011.58 1011.55 1011.48 1011.13 1011.83 1012.39 1012.77 1013.25 1013.58 1013.23 1013.55 1013.69 1013.98 1014.27 1014.63 1015.22 1016.01 1016.61 1016.93 1018.49 1019.63 1020.69 1021.86 1023.12 1023.11 1023.61 1024.69 1026.09 1027.12 1028.19
1017.40 1016.68 1016.22 1015.82 1015.36 1015.16 1014.87 1015.09 1014.98 1014.84 1014.45 1012.22 1011.36 1011.29 1011.31 1011.69 1011.62 1011.30 1011.43 1011.71 1012.10 1013.08 1013.38 1013.32 1012.81 1013.16 1013.29 1013.43 1013.88 1014.05 1014.55 1015.61 1016.34 1017.64 1018.54 1019.66 1020.51 1021.29 1022.08 1022.69 1023.49 1024.39 1025.33 1026.10 1026.73
1017.65 1016.87 1016.29 1015.89 1015.82 1015.34 1015.17 1014.89 1014.65 1014.79 1014.25 1012.21 1011.25 1010.80 1011.09 1011.38 1011.41 1010.92 1011.18 1011.79 1012.10 1012.41 1012.99 1013.09 1012.58 1012.56 1012.71 1012.74 1013.19 1013.30 1013.75 1014.55 1016.03 1017.45 1018.21 1018.41 1019.11 1020.06 1020.64 1022.05 1023.02 1023.57 1024.05 1024.36 1025.56
1017.66 1017.14 1016.47 1015.98 1016.29 1015.70 1015.37 1014.84 1014.50 1014.73 1014.02 1012.17 1011.49 1010.77 1010.95 1011.70 1011.27 1011.05 1010.96 1011.71 1011.92 1012.12 1012.62 1012.36 1011.91 1011.84 1011.71 1011.60 1012.16 1012.31 1012.87 1014.00 1015.26 1016.34 1016.86 1018.09 1019.24 1018.21 1019.16 1020.74 1020.98 1021.24 1022.10 1023.54 1024.90
1017.62 1017.12 1016.49 1015.87 1016.05 1015.41 1014.93 1014.87 1014.81 1014.62 1012.78 1011.71 1011.41 1011.41 1011.77 1011.76 1011.50 1011.46 1011.54 1011.80 1012.00 1012.22 1012.06 1011.96 1011.16 1010.93 1010.80 1010.84 1011.21 1012.03 1012.93 1013.97 1015.00 1016.06 1016.54 1016.74 1017.80 1016.95 1017.72 1017.09 1017.46 1019.54 1020.93 1022.45 1024.36
1017.11 1016.76 1016.54 1015.92 1015.62 1015.03 1015.02 1015.27 1015.16 1013.85 1011.61 1011.63 1011.39 1011.49 1011.77 1011.85 1011.73 1011.82 1012.09 1012.33 1012.53 1012.73 1012.34 1011.84 1010.82 1010.39 1010.05 1010.28 1010.58 1011.22 1012.45 1013.89 1014.85 1015.40 1014.75 1015.19 1016.53 1014.18 1014.56 1014.78 1015.18 1016.58 1019.32 1022.00 1024.09
1016.77 1016.28 1015.83 1015.31 1015.07 1015.04 1015.25 1015.54 1015.01 1012.70 1011.87 1011.63 1011.40 1011.31 1011.56 1011.58 1011.80 1011.98 1012.29 1012.55 1012.63 1012.74 1012.77 1011.98 1010.93 1009.81 1009.30 1009.28 1009.66 1010.02 1010.96 1012.08 1012.77 1013.29 1013.86 1014.43 1013.95 1013.50 1013.83 1014.32 1014.68 1015.84 1018.75 1021.67 1023.84
1016.18 1015.91 1015.90 1014.85 1014.86 1015.23 1015.84 1015.67 1014.02 1013.04 1012.52 1012.10 1011.81 1011.79 1011.63 1011.38 1011.93 1012.41 1012.69 1012.90 1012.56 1012.54 1012.90 1012.14 1010.62 1009.14 1008.41 1008.40 1009.10 1009.40 1009.89 1010.61 1011.60 1012.00 1012.98 1012.81 1012.58 1013.17 1014.04 1014.75 1015.48 1016.99 1019.54 1022.17 1024.36
1016.85 1016.07 1015.31 1014.82 1014.89 1015.41 1015.80 1015.08 1013.74 1012.91 1012.68 1012.51 1012.45 1012.08 1012.36 1012.51 1012.91 1013.38 1013.45 1012.99 1012.70 1012.42 1012.33 1012.14 1011.16 1009.22 1008.11 1008.13 1008.28 1008.29 1009.28 1010.51 1011.02 1011.32 1011.74 1011.63 1012.34 1012.84 1013.96 1014.92 1016.29 1018.17 1020.42 1022.96 1025.02
1016.58 1015.91 1014.80 1014.59 1015.04 1015.67 1015.69 1014.86 1013.75 1013.33 1013.03 1013.04 1013.00 1012.98 1012.96 1013.18 1013.37 1013.74 1013.42 1013.27 1013.11 1013.24 1013.18 1012.86 1011.86 1010.15 1009.00 1008.39 1008.06 1008.44 1008.92 1009.23 1009.69 1010.29 1010.30 1011.12 1010.96 1011.23 1012.29 1013.82 1015.86 1018.57 1021.05 1023.14 1025.13
1017.02 1016.18 1014.67 1014.77 1015.63 1015.39 1014.91 1014.06 1013.69 1013.32 1013.27 1013.36 1013.31 1013.32 1013.43 1013.60 1013.77 1013.95 1013.70 1013.40 1013.66 1013.78 1013.94 1013.71 1013.15 1011.71 1010.27 1009.35 1009.03 1008.60 1008.47 1009.03 1008.81 1008.91 1009.50 1010.84 1010.65 1012.09 1013.21 1014.59 1016.60 1019.43 1021.88 1023.88 1025.61
1017.95 1016.31 1014.73 1014.85 1015.50 1015.44 1014.79 1014.01 1013.43 1013.38 1013.43 1013.59 1013.71 1013.78 1013.93 1014.15 1014.54 1014.48 1014.20 1014.36 1014.29 1014.43 1014.39 1014.67 1013.84 1012.74 1010.94 1010.97 1010.40 1010.16 1009.90 1009.90 1009.56 1009.26 1009.38 1011.09 1010.93 1013.00 1014.13 1015.78 1017.84 1019.73 1022.39 1024.45 1026.23
1018.50 1017.27 1015.84 1015.36 1015.25 1015.35 1015.27 1014.55 1013.99 1013.73 1013.78 1014.01 1014.24 1014.47 1014.80 1014.89 1014.94 1014.93 1014.79 1014.94 1014.98 1015.14 1015.09 1015.27 1014.86 1014.38 1013.34 1011.98 1011.67 1011.03 1010.83 1010.77 1010.75 1009.40 1008.90 1009.61 1012.06 1014.12 1015.27 1016.71 1018.68 1020.62 1022.38 1024.73 1026.66
1018.56 1018.12 1017.50 1016.67 1016.05 1015.93 1015.72 1015.37 1014.99 1014.88 1014.67 1014.61 1014.91 1015.30 1015.79 1015.95 1015.90 1016.16 1015.96 1015.79 1015.90 1015.94 1016.07 1016.24 1015.84 1015.26 1014.27 1013.34 1012.79 1012.25 1011.46 1010.92 1010.78 1010.60 1010.21 1009.70 1011.63 1013.10 1014.62 1016.60 1018.96 1021.00 1023.19 1024.91 1027.11
1019.99 1019.91 1018.85 1017.98 1017.10 1016.74 1016.37 1016.10 1015.74 1015.46 1015.52 1015.61 1015.89 1016.21 1016.55 1016.91 1017.08 1017.11 1017.27 1017.05 1017.02 1016.97 1016.90 1016.97 1017.08 1016.34 1015.54 1014.60 1013.61 1012.95 1012.42 1011.90 1011.50 1011.14 1011.18 1011.68 1012.40 1013.21 1015.11 1017.44 1019.62 1021.57 1023.57 1025.23 1027.13
1020.92 1020.66 1020.21 1018.82 1018.02 1017.73 1017.34 1017.04 1017.04 1016.93 1016.55 1016.47 1016.94 1017.02 1017.11 1017.42 1017.46 1017.53 1017.64 1017.63 1017.66 1017.76 1017.86 1018.19 1018.16 1018.25 1017.41 1016.27 1015.39 1014.43 1013.16 1012.51 1012.13 1011.78 1011.68 1012.31 1012.68 1014.19 1016.21 1017.51 1018.77 1020.63 1023.06 1025.03 1027.15
Thickness
5573 5563 5552 5541 5533 5530 5525 5521 5518 5517 5518 5520 5521 5522 5526 5527 5533 5539 5544 5554 5559 5566 5569 5574 5577 5581 5588 5590 5596 5597 5578 5582 5598 5604 5612 5618 5613 5596 5589 5586 5572 5570 5575 5568 5569
5570 5562 5550 5539 5532 5529 5526 5523 5520 5520 5519 5519 5522 5524 5525 5529 5532 5539 5550 5555 5560 5563 5565 5569 5569 5574 5573 5578 5583 5583 5580 5586 5589 5589 5603 5603 5606 5592 5588 5582 5565 5562 5563 5562 5563
5567 5559 5551 5540 5534 5528 5527 5525 5522 5521 5520 5521 5523 5526 5529 5529 5532 5544 5555 5554 5560 5561 5561 5566 5568 5569 5568 5570 5576 5578 5576 5580 5575 5583 5600 5595 5588 5583 5583 5570 5560 5564 5553 5553 5556
5566 5560 5552 5545 5537 5531 5526 5526 5525 5522 5521 5522 5525 5527 5530 5531 5533 5548 5553 5557 5557 5560 5559 5561 5563 5563 5563 5563 5575 5564 5567 5571 5566 5576 5589 5581 5571 5549 5545 5540 5544 5549 5547 5545 5545
5566 5560 5552 5545 5538 5533 5529 5527 5526 5525 5525 5524 5526 5530 5531 5530 5537 5551 5554 5555 5557 5556 5559 5558 5559 5560 5559 5565 5568 5564 5563 5560 5555 5557 5555 5556 5547 5539 5525 5530 5532 5535 5536 5535 5535
5567 5560 5555 5547 5539 5534 5530 5528 5528 5528 5528 5529 5529 5528 5529 5528 5550 5551 5554 5556 5556 5554 5556 5559 5564 5568 5562 5564 5564 5563 5555 5550 5554 5552 5550 5546 5531 5546 5520 5524 5525 5524 5521 5523 5526
5568 5561 5555 5549 5543 5538 5534 5531 5530 5530 5530 5532 5532 5529 5529 5535 5551 5551 5554 5554 5556 5556 5557 5563 5564 5560 5564 5554 5553 5547 5542 5543 5546 5547 5542 5536 5528 5539 5523 5520 5522 5519 5515 5514 5516
5568 5563 5557 5552 5546 5541 5538 5534 5531 5530 5531 5531 5531 5530 5533 5548 5548 5550 5554 5553 5553 5554 5555 5562 5561 5561 5559 5553 5549 5542 5539 5541 5542 5542 5535 5541 5559 5514 5512 5516 5515 5513 5512 5508 5509
5567 5563 5559 5554 5550 5546 5542 5539 5535 5533 5533 5532 5530 5528 5534 5549 5547 5551 5551 5549 5550 5550 5552 5558 5558 5555 5553 5541 5534 5539 5532 5542 5537 5541 5533 5534 5555 5512 5505 5510 5509 5508 5506 5503 5501
5565 5560 5558 5554 5551 5548 5546 5544 5540 5535 5533 5531 5531 5526 5536 5543 5549 5552 5551 5549 5545 5545 5542 5543 5545 5538 5542 5537 5532 5533 5540 5542 5537 5539 5532 5521 5528 5498 5500 5506 5505 5503 5501 5498 5500
5563 5560 5557 5554 5548 5548 5547 5544 5542 5534 5533 5538 5539 5536 5543 5543 5546 5547 5549 5542 5540 5535 5529 5540 5531 5528 5533 5541 5549 5547 5544 5544 5549 5548 5535 5531 5528 5497 5494 5501 5501 5498 5495 5495 5495
5564 5562 5558 5554 5550 5548 5544 5542 5532 5522 5526 5539 5540 5540 5542 5540 5537 5538 5545 5535 5532 5527 5526 5525 5523 5531 5538 5539 5541 5541 5539 5535 5530 5538 5532 5525 5528 5505 5492 5500 5505 5497 5493 5490 5486
5561 5559 5556 5551 5549 5546 5544 5535 5528 5525 5520 5536 5541 5538 5537 5535 5532 5534 5536 5532 5530 5521 5521 5517 5532 5535 5535 5534 5533 5537 5534 5526 5532 5521 5521 5520 5513 5493 5492 5493 5493 5493 5491 5490 5488
5555 5555 5553 5549 5543 5541 5536 5534 5529 5523 5518 5535 5534 5536 5537 5533 5528 5538 5536 5530 5526 5523 5520 5519 5531 5529 5527 5529 5530 5528 5541 5539 5515 5512 5499 5515 5503 5496 5498 5485 5484 5488 5488 5491 5487
5551 5548 5547 5544 5535 5534 5532 5530 5527 5521 5507 5535 5531 5537 5532 5525 5530 5530 5534 5524 5521 5523 5519 5518 5527 5526 5526 5534 5535 5536 5544 5532 5514 5513 5515 5500 5493 5515 5499 5485 5491 5496 5499 5492 5484
5547 5544 5543 5542 5534 5533 5530 5525 5520 5520 5508 5532 5528 5522 5519 5518 5524 5524 5519 5520 5519 5516 5517 5518 5532 5531 5533 5538 5538 5533 5527 5520 5516 5507 5493 5502 5499 5509 5492 5530 5530 5507 5499 5492 5478
5547 5543 5538 5535 5532 5530 5524 5517 5506 5506 5544 5529 5525 5521 5515 5513 5515 5515 5510 5508 5502 5497 5494 5513 5523 5530 5535 5528 5533 5527 5517 5503 5500 5495 5505 5515 5494 5547 5541 5546 5551 5530 5507 5487 5474
5542 5540 5537 5535 5530 5524 5516 5507 5501 5530 5529 5529 5523 5520 5512 5513 5511 5508 5502 5498 5502 5503 5490 5494 5503 5524 5533 5529 5530 5528 5526 5511 5510 5512 5512 5518 5514 5522 5517 5516 5533 5529 5504 5479 5462
5539 5535 5527 5530 5524 5515 5504 5495 5502 5520 5518 5513 5511 5504 5506 5511 5504 5498 5495 5488 5496 5500 5488 5493 5500 5526 5534 5537 5529 5520 5513 5528 5515 5520 5507 5505 5522 5504 5497 5512 5516 5506 5484 5461 5447
5523 5525 5522 5519 5514 5504 5492 5497 5509 5514 5507 5504 5496 5502 5492 5489 5481 5475 5473 5483 5489 5493 5495 5486 5494 5517 5530 5529 5527 5526 5525 5506 5507 5501 5505 5500 5508 5527 5500 5500 5499 5485 5465 5445 5434
5515 5518 5517 5511 5503 5491 5480 5483 5503 5500 5498 5490 5485 5476 5478 5477 5465 5455 5465 5475 5468 5472 5470 5464 5476 5500 5511 5513 5516 5518 5513 5515 5515 5505 5513 5507 5525 5520 5528 5507 5496 5474 5453 5436 5426
5498 5501 5507 5500 5485 5479 5480 5495 5490 5489 5484 5478 5477 5468 5460 5460 5441 5451 5452 5461 5453 5451 5448 5452 5449 5470 5481 5493 5497 5515 5515 5510 5510 5515 5518 5518 5525 5482 5488 5491 5477 5453 5439 5425 5416
5479 5487 5494 5487 5471 5468 5472 5486 5483 5475 5469 5465 5461 5459 5451 5450 5430 5428 5436 5435 5435 5437 5436 5429 5441 5452 5473 5468 5468 5468 5484 5486 5500 5496 5513 5501 5521 5462 5469 5464 5452 5441 5426 5416 5405
5461 5470 5473 5471 5467 5465 5459 5459 5463 5462 5455 5449 5441 5438 5431 5428 5427 5411 5424 5415 5413 5417 5422 5416 5417 5424 5437 5462 5448 5455 5457 5458 5462 5489 5509 5512 5472 5430 5451 5449 5437 5427 5418 5404 5393
5449 5453 5445 5449 5448 5442 5440 5443 5436 5431 5435 5433 5425 5418 5410 5389 5395 5390 5399 5396 5393 5400 5395 5392 5398 5395 5418 5430 5434 5435 5444 5452 5453 5463 5480 5511 5497 5447 5450 5440 5425 5414 5401 5392 5381
5419 5416 5413 5417 5426 5422 5417 5420 5422 5420 5413 5410 5402 5392 5387 5380 5378 5365 5362 5352 5363 5369 5378 5375 5362 5380 5373 5411 5415 5419 5427 5434 5439 5450 5456 5467 5469 5422 5438 5421 5407 5397 5388 5380 5374
5393 5395 5392 5405 5406 5403 5401 5400 5394 5391 5392 5389 5376 5370 5366 5361 5355 5350 5341 5339 5338 5340 5325 5328 5344 5306 5299 5367 5381 5387 5422 5432 5440 5438 5452 5464 5463 5420 5412 5411 5406 5396 5386 5373 5363